Location: Ajisawe
(8.4333°N, 4.3833°E)
Time: 07:26:34
(UTC+00:00)

A-11 Canister half - Pass Details

Date: 23 April 2021
Orbit: 1514 x 1685 km, 47.2° (Epoch: 12 May)

Event Time Altitude Azimuth Distance (km) Brightness Sun altitude
Rises 03:45:19 0° 324° (NW) 4,865 11.5 -25.7°
Reaches altitude 10° 03:48:27 10° 326° (NNW) 3,896 11.0 -25.0°
Maximum altitude 03:58:27 70° 49° (NE) 1,764 9.4 -22.6°
Drops below altitude 10° 04:08:34 10° 132° (SE) 3,942 11.5 -20.3°
Sets 04:11:45 0° 134° (SE) 4,924 12.1 -19.5°
